WXM80 ListenWXM80 Stop

You find our weather info also at:

UK Metoffice

WeatherCloud

Weather Underground

Northeastern Weather Network

AWEKAS

Citizen Weather Observer Program (CWOP)

HAMweather, WeatherForYou, PWS Weather


Weather Underground History page Text

Daily Summary for February 6, 2018 Units:  English    Metric   Both
« Previous Day
Next Day »
Daily Weekly Monthly Yearly Custom
  High: Low: Average:
Temperature: 37.9 °F 24.4 °F 29.2 °F
Dew Point: 26.5 °F 14.2 °F 21.2 °F
Humidity: 88 % 60 % 72 %
Wind Speed: 6.4 mph 0.0 mph 0.6 mph
Wind Gust: 9.2 mph - -
Wind:- - SE
Pressure: 30.26 in 30.04 in -
Precipitation: 0.00 in    
Historical Graphs
 
 
Tabular Data for February 6, 2018
Time Temperature Dew Point Pressure Wind Wind Speed Wind Gust Humidity Rainfall Rate (Hourly)
00:02 24.8 °F 14.3 °F 30.05 in West 1.7 mph 4.6 mph 64 % 0.00 in
00:07 24.8 °F 14.3 °F 30.06 in West 0.2 mph 1.2 mph 64 % 0.00 in
00:12 24.7 °F 14.2 °F 30.06 in West 0.3 mph 2.0 mph 64 % 0.00 in
00:17 24.7 °F 14.6 °F 30.06 in WNW 1.6 mph 2.3 mph 65 % 0.00 in
00:22 24.7 °F 14.6 °F 30.06 in Calm   1.2 mph 65 % 0.00 in
00:27 24.7 °F 14.9 °F 30.06 in Calm     66 % 0.00 in
00:32 24.7 °F 14.6 °F 30.06 in WNW 0.7 mph 1.2 mph 65 % 0.00 in
00:37 24.6 °F 14.9 °F 30.06 in Calm   1.2 mph 66 % 0.00 in
00:42 24.6 °F 14.5 °F 30.06 in WNW 0.5 mph 3.5 mph 65 % 0.00 in
00:47 24.6 °F 14.5 °F 30.07 in Calm     65 % 0.00 in
00:53 24.5 °F 14.8 °F 30.06 in WNW 0.1 mph 2.3 mph 66 % 0.00 in
00:58 24.5 °F 14.8 °F 30.06 in WNW 0.5 mph 2.3 mph 66 % 0.00 in
01:03 24.4 °F 14.7 °F 30.06 in WNW 0.9 mph 3.5 mph 66 % 0.00 in
01:09 24.4 °F 14.7 °F 30.07 in Calm   3.5 mph 66 % 0.00 in
01:14 24.4 °F 14.7 °F 30.07 in WNW 1.5 mph 2.3 mph 66 % 0.00 in
01:19 24.4 °F 14.7 °F 30.06 in Calm     66 % 0.00 in
01:24 24.4 °F 15.0 °F 30.07 in Calm     67 % 0.00 in
01:29 24.5 °F 15.1 °F 30.07 in Calm     67 % 0.00 in
01:34 24.5 °F 15.4 °F 30.07 in Calm     68 % 0.00 in
01:39 24.5 °F 15.4 °F 30.07 in WNW 0.8 mph 2.3 mph 68 % 0.00 in
01:44 24.6 °F 15.2 °F 30.07 in Calm     67 % 0.00 in
01:49 24.6 °F 14.9 °F 30.07 in Calm     66 % 0.00 in
01:54 24.7 °F 14.9 °F 30.07 in WNW 0.1 mph   66 % 0.00 in
01:59 24.7 °F 15.3 °F 30.06 in Calm     67 % 0.00 in
02:05 24.8 °F 15.7 °F 30.07 in Calm     68 % 0.00 in
02:10 24.9 °F 15.8 °F 30.07 in Calm     68 % 0.00 in
02:15 24.9 °F 15.8 °F 30.06 in Calm     68 % 0.00 in
02:20 25.0 °F 15.9 °F 30.06 in Calm     68 % 0.00 in
02:25 25.1 °F 16.4 °F 30.06 in Calm     69 % 0.00 in
02:30 25.1 °F 16.4 °F 30.06 in Calm     69 % 0.00 in
02:35 25.2 °F 16.8 °F 30.06 in Calm     70 % 0.00 in
02:40 25.2 °F 17.1 °F 30.05 in Calm     71 % 0.00 in
02:45 25.3 °F 17.5 °F 30.06 in Calm     72 % 0.00 in
02:50 25.3 °F 17.5 °F 30.05 in Calm     72 % 0.00 in
02:55 25.3 °F 17.5 °F 30.06 in Calm     72 % 0.00 in
03:00 25.3 °F 17.5 °F 30.05 in Calm     72 % 0.00 in
03:05 25.3 °F 17.5 °F 30.04 in Calm     72 % 0.00 in
03:10 25.3 °F 17.5 °F 30.04 in Calm     72 % 0.00 in
03:15 25.3 °F 17.5 °F 30.04 in Calm     72 % 0.00 in
03:20 25.2 °F 17.4 °F 30.05 in Calm     72 % 0.00 in
03:25 25.2 °F 17.8 °F 30.04 in Calm     73 % 0.00 in
03:31 25.2 °F 17.4 °F 30.05 in Calm     72 % 0.00 in
03:36 25.1 °F 17.7 °F 30.05 in Calm     73 % 0.00 in
03:41 25.1 °F 17.7 °F 30.05 in Calm     73 % 0.00 in
03:46 25.1 °F 17.7 °F 30.06 in Calm     73 % 0.00 in
03:51 25.1 °F 17.7 °F 30.06 in Calm     73 % 0.00 in
03:56 25.1 °F 18.0 °F 30.06 in Calm     74 % 0.00 in
04:01 25.1 °F 18.0 °F 30.06 in Calm     74 % 0.00 in
04:06 25.1 °F 18.0 °F 30.06 in Calm     74 % 0.00 in
04:11 25.1 °F 18.0 °F 30.06 in Calm     74 % 0.00 in
04:16 25.1 °F 18.0 °F 30.06 in Calm     74 % 0.00 in
04:21 25.1 °F 18.3 °F 30.06 in Calm     75 % 0.00 in
04:26 25.1 °F 18.3 °F 30.06 in Calm     75 % 0.00 in
04:31 25.2 °F 18.4 °F 30.06 in Calm     75 % 0.00 in
04:37 25.2 °F 18.4 °F 30.06 in Calm   1.2 mph 75 % 0.00 in
04:42 25.2 °F 18.4 °F 30.06 in Calm     75 % 0.00 in
04:47 25.3 °F 18.5 °F 30.06 in Calm     75 % 0.00 in
04:52 25.3 °F 18.5 °F 30.07 in Calm     75 % 0.00 in
04:57 25.4 °F 18.6 °F 30.07 in Calm     75 % 0.00 in
05:02 25.4 °F 18.6 °F 30.06 in Calm     75 % 0.00 in
05:07 25.5 °F 18.0 °F 30.06 in Calm     73 % 0.00 in
05:12 25.6 °F 18.1 °F 30.06 in WNW 0.2 mph 1.2 mph 73 % 0.00 in
05:17 25.7 °F 18.2 °F 30.06 in Calm     73 % 0.00 in
05:22 25.7 °F 17.9 °F 30.06 in Calm     72 % 0.00 in
05:27 25.8 °F 18.0 °F 30.07 in WNW 0.2 mph 1.2 mph 72 % 0.00 in
05:32 25.8 °F 18.0 °F 30.06 in Calm     72 % 0.00 in
05:37 25.9 °F 17.8 °F 30.06 in SW 0.9 mph 2.3 mph 71 % 0.00 in
05:42 26.0 °F 17.9 °F 30.06 in Calm     71 % 0.00 in
05:47 26.0 °F 17.9 °F 30.06 in SSE 2.4 mph 3.5 mph 71 % 0.00 in
05:52 26.0 °F 17.6 °F 30.06 in SSE 1.1 mph 3.5 mph 70 % 0.00 in
05:57 26.0 °F 17.6 °F 30.06 in SSE 1.0 mph 3.0 mph 70 % 0.00 in
06:02 26.0 °F 17.6 °F 30.06 in SSE 1.0 mph 5.8 mph 70 % 0.00 in
06:07 26.0 °F 17.2 °F 30.06 in Calm   1.2 mph 69 % 0.00 in
06:13 26.0 °F 17.2 °F 30.07 in SSE 2.0 mph 3.5 mph 69 % 0.00 in
06:18 26.1 °F 17.3 °F 30.07 in SSE 2.0 mph 3.0 mph 69 % 0.00 in
06:23 26.1 °F 17.0 °F 30.08 in SSE 2.0 mph 3.5 mph 68 % 0.00 in
06:28 26.2 °F 17.4 °F 30.08 in SSE 0.5 mph 3.5 mph 69 % 0.00 in
06:33 26.2 °F 17.4 °F 30.08 in SSE 3.8 mph 5.8 mph 69 % 0.00 in
06:38 26.3 °F 17.5 °F 30.08 in SE 1.1 mph 3.5 mph 69 % 0.00 in
06:43 26.3 °F 17.5 °F 30.09 in Calm     69 % 0.00 in
06:48 26.4 °F 17.6 °F 30.09 in SE 0.3 mph 1.2 mph 69 % 0.00 in
06:53 26.5 °F 17.4 °F 30.09 in Calm     68 % 0.00 in
06:58 26.5 °F 17.7 °F 30.10 in Calm     69 % 0.00 in
07:03 26.5 °F 17.7 °F 30.10 in Calm     69 % 0.00 in
07:08 26.6 °F 17.8 °F 30.10 in Calm     69 % 0.00 in
07:13 26.6 °F 17.8 °F 30.11 in Calm     69 % 0.00 in
07:18 26.6 °F 17.8 °F 30.11 in Calm     69 % 0.00 in
07:23 26.6 °F 18.1 °F 30.12 in Calm     70 % 0.00 in
07:29 26.7 °F 18.2 °F 30.12 in Calm     70 % 0.00 in
07:34 26.7 °F 18.2 °F 30.12 in Calm     70 % 0.00 in
07:39 26.7 °F 18.2 °F 30.12 in Calm     70 % 0.00 in
07:44 26.8 °F 18.3 °F 30.13 in Calm     70 % 0.00 in
07:49 26.9 °F 18.4 °F 30.13 in Calm     70 % 0.00 in
07:54 26.9 °F 18.4 °F 30.13 in Calm     70 % 0.00 in
07:59 27.0 °F 18.5 °F 30.13 in Calm     70 % 0.00 in
08:04 27.1 °F 18.6 °F 30.13 in Calm     70 % 0.00 in
08:09 27.2 °F 18.7 °F 30.13 in Calm     70 % 0.00 in
08:14 27.4 °F 18.9 °F 30.13 in Calm     70 % 0.00 in
08:19 27.5 °F 19.0 °F 30.13 in Calm     70 % 0.00 in
08:24 27.5 °F 19.0 °F 30.13 in Calm     70 % 0.00 in
08:29 27.7 °F 19.2 °F 30.13 in Calm     70 % 0.00 in
08:34 27.8 °F 18.9 °F 30.14 in Calm     69 % 0.00 in
08:39 28.0 °F 19.1 °F 30.15 in Calm     69 % 0.00 in
08:44 28.1 °F 19.6 °F 30.14 in Calm     70 % 0.00 in
08:49 28.2 °F 19.7 °F 30.14 in Calm     70 % 0.00 in
08:54 28.4 °F 19.9 °F 30.14 in Calm     70 % 0.00 in
09:00 28.5 °F 20.0 °F 30.14 in Calm     70 % 0.00 in
09:05 28.6 °F 20.1 °F 30.14 in SE 0.3 mph 2.0 mph 70 % 0.00 in
09:10 28.7 °F 19.8 °F 30.13 in SE 0.2 mph 1.2 mph 69 % 0.00 in
09:15 28.8 °F 20.2 °F 30.14 in Calm     70 % 0.00 in
09:20 28.9 °F 20.0 °F 30.14 in SE 0.3 mph 2.3 mph 69 % 0.00 in
09:25 29.0 °F 20.1 °F 30.14 in Calm     69 % 0.00 in
09:30 29.1 °F 20.2 °F 30.15 in SE 0.5 mph 2.3 mph 69 % 0.00 in
09:35 29.2 °F 20.3 °F 30.14 in Calm     69 % 0.00 in
09:40 29.3 °F 20.4 °F 30.15 in Calm     69 % 0.00 in
09:45 29.4 °F 20.5 °F 30.14 in Calm     69 % 0.00 in
09:50 29.4 °F 20.5 °F 30.15 in Calm     69 % 0.00 in
09:55 29.6 °F 20.7 °F 30.14 in Calm     69 % 0.00 in
10:00 29.7 °F 20.8 °F 30.14 in Calm     69 % 0.00 in
10:05 29.8 °F 20.5 °F 30.14 in SE 1.6 mph 2.3 mph 68 % 0.00 in
10:10 30.0 °F 21.1 °F 30.14 in Calm     69 % 0.00 in
10:15 30.1 °F 20.8 °F 30.14 in Calm     68 % 0.00 in
10:20 30.2 °F 20.9 °F 30.14 in Calm   1.2 mph 68 % 0.00 in
10:25 30.3 °F 21.0 °F 30.14 in Calm   1.0 mph 68 % 0.00 in
10:30 30.5 °F 20.8 °F 30.14 in SE 0.1 mph 2.3 mph 67 % 0.00 in
10:36 30.6 °F 21.0 °F 30.13 in Calm   2.0 mph 67 % 0.00 in
10:41 30.9 °F 21.2 °F 30.13 in Calm   2.0 mph 67 % 0.00 in
10:46 31.1 °F 21.1 °F 30.13 in Calm     66 % 0.00 in
10:51 31.5 °F 21.8 °F 30.12 in SE 1.4 mph 3.0 mph 67 % 0.00 in
10:56 31.8 °F 21.8 °F 30.12 in SE 1.0 mph 3.0 mph 66 % 0.00 in
11:01 32.3 °F 22.6 °F 30.12 in SW 1.1 mph 3.5 mph 67 % 0.00 in
11:06 32.6 °F 22.1 °F 30.12 in Calm   4.0 mph 65 % 0.00 in
11:11 32.9 °F 22.4 °F 30.12 in Calm   1.0 mph 65 % 0.00 in
11:16 33.2 °F 22.3 °F 30.12 in Calm   2.0 mph 64 % 0.00 in
11:21 33.4 °F 22.5 °F 30.12 in Calm   1.0 mph 64 % 0.00 in
11:26 33.6 °F 22.3 °F 30.12 in SSW 2.0 mph 7.0 mph 63 % 0.00 in
11:31 33.9 °F 22.2 °F 30.12 in Calm   4.0 mph 62 % 0.00 in
11:36 34.2 °F 22.9 °F 30.12 in Calm   4.0 mph 63 % 0.00 in
11:40 34.4 °F 22.7 °F 30.12 in SW 5.0 mph 7.0 mph 62 % 0.00 in
11:45 34.8 °F 23.1 °F 30.12 in Calm   7.0 mph 62 % 0.00 in
11:50 35.0 °F 22.5 °F 30.11 in WSW 2.3 mph 4.6 mph 60 % 0.00 in
11:56 35.2 °F 22.7 °F 30.11 in Calm   4.0 mph 60 % 0.00 in
12:01 35.5 °F 23.4 °F 30.11 in WSW 1.5 mph 3.5 mph 61 % 0.00 in
12:06 35.8 °F 23.3 °F 30.11 in WNW 3.8 mph 5.8 mph 60 % 0.00 in
12:11 35.9 °F 24.5 °F 30.11 in North 2.2 mph 4.0 mph 63 % 0.00 in
12:16 36.0 °F 24.6 °F 30.11 in NNW 1.7 mph 5.0 mph 63 % 0.00 in
12:21 35.9 °F 24.9 °F 30.10 in NNE 2.4 mph 3.5 mph 64 % 0.00 in
12:26 35.9 °F 25.3 °F 30.10 in NNE 2.6 mph 3.5 mph 65 % 0.00 in
12:31 35.9 °F 25.3 °F 30.10 in NNE 5.7 mph 8.1 mph 65 % 0.00 in
12:36 35.9 °F 25.6 °F 30.09 in NNE 1.5 mph 2.3 mph 66 % 0.00 in
12:41 36.1 °F 25.5 °F 30.09 in NNE 5.2 mph 6.9 mph 65 % 0.00 in
12:46 36.1 °F 25.8 °F 30.09 in ENE 2.5 mph 3.5 mph 66 % 0.00 in
12:51 36.2 °F 25.9 °F 30.09 in NNE 5.1 mph 7.0 mph 66 % 0.00 in
12:56 36.2 °F 25.6 °F 30.08 in NE 4.7 mph 6.9 mph 65 % 0.00 in
13:01 36.4 °F 25.7 °F 30.08 in NE 2.4 mph 5.8 mph 65 % 0.00 in
13:06 36.5 °F 25.8 °F 30.08 in NNE 6.4 mph 9.2 mph 65 % 0.00 in
13:11 36.5 °F 25.8 °F 30.09 in North 3.3 mph 5.0 mph 65 % 0.00 in
13:16 36.8 °F 25.8 °F 30.08 in North 2.9 mph 4.6 mph 64 % 0.00 in
13:22 37.1 °F 25.7 °F 30.08 in NNE 2.9 mph 6.9 mph 63 % 0.00 in
13:27 37.3 °F 25.5 °F 30.08 in North 3.7 mph 7.0 mph 62 % 0.00 in
13:32 37.4 °F 26.3 °F 30.08 in NNE 1.4 mph 4.6 mph 64 % 0.00 in
13:37 37.6 °F 26.5 °F 30.08 in NE 3.1 mph 4.6 mph 64 % 0.00 in
13:42 37.9 °F 26.4 °F 30.08 in NNE 3.5 mph 4.6 mph 63 % 0.00 in
13:47 37.9 °F 25.6 °F 30.08 in NE 4.8 mph 6.9 mph 61 % 0.00 in
13:52 37.5 °F 25.3 °F 30.08 in NE 2.0 mph 3.5 mph 61 % 0.00 in
13:57 37.2 °F 25.4 °F 30.08 in NE 1.2 mph 3.5 mph 62 % 0.00 in
14:02 36.8 °F 25.0 °F 30.09 in NE 1.9 mph 3.5 mph 62 % 0.00 in
14:07 36.2 °F 24.4 °F 30.09 in NE 1.6 mph 3.5 mph 62 % 0.00 in
14:12 35.9 °F 24.9 °F 30.09 in NNE 0.4 mph 2.3 mph 64 % 0.00 in
14:17 35.7 °F 24.7 °F 30.09 in ENE 1.5 mph 3.5 mph 64 % 0.00 in
14:22 35.4 °F 24.4 °F 30.09 in NE 2.2 mph 3.5 mph 64 % 0.00 in
14:27 35.2 °F 24.2 °F 30.09 in ENE 1.3 mph 3.5 mph 64 % 0.00 in
14:32 34.9 °F 24.7 °F 30.09 in ENE 0.7 mph 2.3 mph 66 % 0.00 in
14:38 34.8 °F 24.6 °F 30.09 in ENE 0.1 mph 2.3 mph 66 % 0.00 in
14:43 34.7 °F 24.5 °F 30.09 in NE 1.3 mph 3.5 mph 66 % 0.00 in
14:48 34.6 °F 24.4 °F 30.08 in ENE 1.8 mph 3.5 mph 66 % 0.00 in
14:53 34.4 °F 24.2 °F 30.08 in NE 3.1 mph 3.5 mph 66 % 0.00 in
14:58 34.1 °F 24.3 °F 30.08 in ENE 2.0 mph 3.5 mph 67 % 0.00 in
15:03 34.0 °F 24.2 °F 30.08 in ENE 1.8 mph 3.5 mph 67 % 0.00 in
15:08 34.0 °F 24.5 °F 30.09 in ENE 0.1 mph 3.5 mph 68 % 0.00 in
15:13 33.9 °F 24.4 °F 30.09 in ENE 1.0 mph 3.5 mph 68 % 0.00 in
15:16 33.9 °F 24.8 °F 30.09 in ENE 0.5 mph 2.3 mph 69 % 0.00 in
15:21 34.1 °F 25.0 °F 30.09 in NE 1.5 mph 3.5 mph 69 % 0.00 in
15:26 34.1 °F 25.0 °F 30.09 in ENE 0.5 mph 3.5 mph 69 % 0.00 in
15:31 34.1 °F 25.0 °F 30.10 in ENE 2.2 mph 3.5 mph 69 % 0.00 in
15:36 34.1 °F 25.0 °F 30.09 in ENE 1.1 mph 2.3 mph 69 % 0.00 in
15:41 34.1 °F 25.0 °F 30.10 in ENE 1.4 mph 3.5 mph 69 % 0.00 in
15:46 33.9 °F 25.1 °F 30.10 in ENE 0.5 mph 3.0 mph 70 % 0.00 in
15:52 33.9 °F 25.1 °F 30.10 in ENE 1.4 mph 2.3 mph 70 % 0.00 in
15:57 33.9 °F 25.1 °F 30.10 in ENE 1.4 mph 2.3 mph 70 % 0.00 in
16:02 33.9 °F 25.5 °F 30.11 in ENE 0.9 mph 2.3 mph 71 % 0.00 in
16:07 33.9 °F 25.5 °F 30.10 in ENE 1.3 mph 2.3 mph 71 % 0.00 in
16:12 33.8 °F 25.4 °F 30.11 in ENE 0.5 mph 2.3 mph 71 % 0.00 in
16:17 33.8 °F 25.4 °F 30.12 in Calm   1.2 mph 71 % 0.00 in
16:22 33.7 °F 25.0 °F 30.11 in Calm     70 % 0.00 in
16:27 33.7 °F 25.0 °F 30.12 in Calm     70 % 0.00 in
16:32 33.7 °F 25.3 °F 30.12 in Calm     71 % 0.00 in
16:37 33.6 °F 25.2 °F 30.12 in Calm     71 % 0.00 in
16:42 33.6 °F 24.9 °F 30.13 in Calm     70 % 0.00 in
16:47 33.6 °F 25.2 °F 30.13 in Calm     71 % 0.00 in
16:52 33.5 °F 25.1 °F 30.14 in Calm     71 % 0.00 in
16:57 33.5 °F 24.8 °F 30.14 in Calm     70 % 0.00 in
17:02 33.5 °F 25.1 °F 30.14 in Calm     71 % 0.00 in
17:07 33.4 °F 25.0 °F 30.14 in Calm     71 % 0.00 in
17:13 33.3 °F 25.2 °F 30.14 in Calm     72 % 0.00 in
17:18 33.2 °F 25.1 °F 30.13 in Calm     72 % 0.00 in
17:23 33.1 °F 25.1 °F 30.14 in Calm     72 % 0.00 in
17:28 33.0 °F 25.0 °F 30.14 in Calm     72 % 0.00 in
17:33 32.8 °F 24.8 °F 30.14 in Calm     72 % 0.00 in
17:38 32.7 °F 24.7 °F 30.15 in Calm     72 % 0.00 in
17:43 32.5 °F 24.5 °F 30.15 in Calm     72 % 0.00 in
17:48 32.4 °F 24.4 °F 30.15 in Calm     72 % 0.00 in
17:53 32.2 °F 24.5 °F 30.15 in Calm     73 % 0.00 in
17:58 32.0 °F 24.3 °F 30.15 in Calm     73 % 0.00 in
18:03 31.8 °F 24.1 °F 30.16 in Calm     73 % 0.00 in
18:08 31.7 °F 24.4 °F 30.17 in Calm     74 % 0.00 in
18:13 31.5 °F 24.2 °F 30.17 in Calm     74 % 0.00 in
18:18 31.3 °F 24.3 °F 30.17 in ENE 0.3 mph 1.2 mph 75 % 0.00 in
18:23 31.1 °F 24.4 °F 30.17 in Calm     76 % 0.00 in
18:28 30.9 °F 24.2 °F 30.18 in Calm     76 % 0.00 in
18:33 30.7 °F 24.3 °F 30.18 in Calm     77 % 0.00 in
18:39 30.5 °F 24.1 °F 30.18 in Calm     77 % 0.00 in
18:44 30.3 °F 24.0 °F 30.18 in Calm     77 % 0.00 in
18:49 30.1 °F 24.1 °F 30.18 in Calm     78 % 0.00 in
18:54 30.0 °F 24.0 °F 30.19 in Calm     78 % 0.00 in
18:59 29.9 °F 23.9 °F 30.19 in Calm     78 % 0.00 in
19:04 29.7 °F 24.0 °F 30.19 in Calm     79 % 0.00 in
19:09 29.5 °F 23.8 °F 30.19 in Calm     79 % 0.00 in
19:14 29.4 °F 23.7 °F 30.19 in Calm     79 % 0.00 in
19:19 29.2 °F 23.5 °F 30.19 in ENE 1.0 mph 2.3 mph 79 % 0.00 in
19:24 29.1 °F 23.7 °F 30.20 in Calm     80 % 0.00 in
19:29 29.0 °F 23.6 °F 30.20 in Calm     80 % 0.00 in
19:34 28.8 °F 23.1 °F 30.20 in Calm     79 % 0.00 in
19:39 28.7 °F 23.0 °F 30.21 in Calm     79 % 0.00 in
19:44 28.6 °F 23.2 °F 30.21 in Calm     80 % 0.00 in
19:49 28.5 °F 23.1 °F 30.21 in Calm     80 % 0.00 in
19:54 28.4 °F 23.3 °F 30.22 in Calm     81 % 0.00 in
20:00 28.2 °F 23.1 °F 30.22 in Calm     81 % 0.00 in
20:05 28.1 °F 23.0 °F 30.22 in Calm     81 % 0.00 in
20:10 28.1 °F 23.3 °F 30.23 in Calm   1.2 mph 82 % 0.00 in
20:15 28.0 °F 23.2 °F 30.23 in Calm     82 % 0.00 in
20:20 27.9 °F 23.4 °F 30.23 in ENE 0.9 mph 2.3 mph 83 % 0.00 in
20:25 27.8 °F 23.3 °F 30.24 in Calm     83 % 0.00 in
20:30 27.8 °F 23.3 °F 30.24 in Calm     83 % 0.00 in
20:35 27.8 °F 23.3 °F 30.24 in Calm     83 % 0.00 in
20:40 27.7 °F 23.2 °F 30.24 in Calm     83 % 0.00 in
20:45 27.7 °F 23.2 °F 30.24 in Calm     83 % 0.00 in
20:50 27.6 °F 23.1 °F 30.24 in Calm     83 % 0.00 in
20:55 27.5 °F 23.0 °F 30.24 in Calm     83 % 0.00 in
21:00 27.4 °F 22.9 °F 30.24 in Calm     83 % 0.00 in
21:05 27.4 °F 22.9 °F 30.24 in Calm     83 % 0.00 in
21:10 27.3 °F 22.8 °F 30.24 in Calm     83 % 0.00 in
21:15 27.2 °F 22.7 °F 30.24 in Calm     83 % 0.00 in
21:21 27.1 °F 22.6 °F 30.24 in Calm     83 % 0.00 in
21:26 27.0 °F 22.8 °F 30.24 in Calm     84 % 0.00 in
21:31 27.0 °F 22.8 °F 30.24 in Calm     84 % 0.00 in
21:36 26.9 °F 22.7 °F 30.24 in Calm     84 % 0.00 in
21:41 26.8 °F 22.6 °F 30.24 in Calm     84 % 0.00 in
21:46 26.7 °F 22.8 °F 30.24 in Calm     85 % 0.00 in
21:51 26.6 °F 22.7 °F 30.24 in Calm     85 % 0.00 in
21:56 26.5 °F 22.6 °F 30.24 in Calm     85 % 0.00 in
22:01 26.5 °F 22.6 °F 30.24 in Calm     85 % 0.00 in
22:06 26.4 °F 22.5 °F 30.24 in Calm     85 % 0.00 in
22:11 26.3 °F 22.4 °F 30.24 in Calm     85 % 0.00 in
22:16 26.3 °F 22.7 °F 30.25 in Calm     86 % 0.00 in
22:21 26.3 °F 22.7 °F 30.25 in Calm     86 % 0.00 in
22:26 26.3 °F 22.7 °F 30.25 in Calm   1.2 mph 86 % 0.00 in
22:31 26.3 °F 22.7 °F 30.25 in Calm     86 % 0.00 in
22:36 26.3 °F 23.0 °F 30.24 in Calm     87 % 0.00 in
22:41 26.3 °F 23.0 °F 30.24 in Calm     87 % 0.00 in
22:46 26.3 °F 23.0 °F 30.24 in Calm     87 % 0.00 in
22:51 26.3 °F 23.0 °F 30.23 in Calm     87 % 0.00 in
22:56 26.3 °F 23.0 °F 30.24 in Calm     87 % 0.00 in
23:01 26.3 °F 23.0 °F 30.24 in Calm     87 % 0.00 in
23:06 26.3 °F 23.0 °F 30.25 in Calm     87 % 0.00 in
23:11 26.3 °F 23.2 °F 30.25 in ENE 0.3 mph 1.2 mph 88 % 0.00 in
23:16 26.3 °F 23.2 °F 30.25 in Calm   1.2 mph 88 % 0.00 in
23:21 26.4 °F 23.3 °F 30.26 in Calm     88 % 0.00 in
23:26 26.4 °F 23.3 °F 30.25 in East 1.3 mph 2.0 mph 88 % 0.00 in
23:32 26.5 °F 23.4 °F 30.25 in East 0.4 mph 2.0 mph 88 % 0.00 in
23:37 26.5 °F 23.4 °F 30.25 in East 0.2 mph 1.0 mph 88 % 0.00 in
23:42 26.6 °F 23.5 °F 30.26 in Calm     88 % 0.00 in
23:47 26.7 °F 23.6 °F 30.25 in Calm     88 % 0.00 in
23:52 26.7 °F 23.6 °F 30.25 in East 0.1 mph 1.2 mph 88 % 0.00 in
23:57 26.7 °F 23.6 °F 30.25 in Calm     88 % 0.00 in
Crab Meadow Weather
Compliments of Weather Underground - 3 mb

Script developed by  Jim McMurry - jmcmurry@mwt.net Adapted for the template by  Wim van der Kuil - Leuven-Template.eu

Clouds: Partly sunny and partly cloudy indicate the same amount of cloud coverage - about 50 percent. Partly sunny is used during the daytime, and partly cloudy is used at night when there is no sun.